Change the Weather History Date:

Thursday, January 3, 2013

  Actual Average (KGAF) Record (KGAF)
Temperature  
Mean Temperature 18 °F -  
Max Temperature 30 °F 12 °F 41 °F (1964)
Min Temperature 5 °F -3 °F -29 °F (1982)
Degree Days  
Heating Degree Days 48    
Moisture  
Dew Point 11 °F    
Average Humidity 71    
Maximum Humidity 85    
Minimum Humidity 55    
Precipitation  
Precipitation 0.00 in - - ()
Sea Level Pressure  
Sea Level Pressure 30.02 in    
Wind  
Wind Speed 9 mph (WSW)    
Max Wind Speed 20 mph    
Max Gust Speed 28 mph    
Visibility 10 miles    
Events Snow    
Averages and records for this station are not official NWS values.
T = Trace of Precipitation, MM = Missing Value Source: NWS Daily Summary

Daily Weather History Graph

Daily Weather History Graph

Search for Another Location

Airport or City:

Trip Planner

Search our weather history database for the weather conditions in past years. The results will help you decide how hot, cold, wet, or windy it might be!

Date:

Astronomy

Jan. 03, 2013 Rise Set
Actual Time 8:23 AM CST 4:47 PM CST
Civil Twilight 7:46 AM CST 5:24 PM CST
Nautical Twilight 7:06 AM CST 6:04 PM CST
Astronomical Twilight 6:28 AM CST 6:42 PM CST
Moon No Moon Rise 11:02 AM CST (1/3)
Length of Visible Light 9h 37m
Length of Day
8h 23m
Waning Gibbous, 65% of the Moon is Illuminated
Jan 3
Waning Gibbous
Jan 4
Last Quarter
Jan 11
New
Jan 18
First Quarter
Jan 26
Full

Hourly Weather History & Observations

Time (CST) Temp. Windchill Dew Point Humidity Pressure Visibility Wind Dir Wind Speed Gust Speed Precip Events Conditions
12:15 AM 6.8 °F -5.9 °F -0.4 °F 72% 30.26 in 10.0 mi NW 8.1 mph - N/A   Mostly Cloudy
12:35 AM 6.8 °F -4.8 °F -0.4 °F 72% 30.25 in 10.0 mi NW 6.9 mph - N/A   Overcast
12:55 AM 6.8 °F -4.8 °F 1.4 °F 79% 30.25 in 10.0 mi NW 6.9 mph - N/A   Overcast
1:15 AM 6.8 °F -5.9 °F 1.4 °F 79% 30.26 in 10.0 mi NW 8.1 mph - N/A   Overcast
1:35 AM 8.6 °F -1.3 °F 1.4 °F 73% 30.26 in 10.0 mi NW 5.8 mph - N/A   Overcast
1:55 AM 8.6 °F 0.1 °F 1.4 °F 73% 30.26 in 10.0 mi WNW 4.6 mph - N/A   Overcast
2:15 AM 8.6 °F 2.0 °F 3.2 °F 79% 30.25 in 10.0 mi West 3.5 mph - N/A   Overcast
2:35 AM 8.6 °F 0.1 °F 1.4 °F 73% 30.25 in 10.0 mi West 4.6 mph - N/A Snow Light Snow
2:55 AM 8.6 °F 0.1 °F 1.4 °F 73% 30.25 in 10.0 mi SW 4.6 mph - N/A   Overcast
3:15 AM 8.6 °F 0.1 °F 1.4 °F 73% 30.24 in 10.0 mi SW 4.6 mph - N/A   Overcast
3:35 AM 8.6 °F -1.3 °F 3.2 °F 79% 30.24 in 10.0 mi WSW 5.8 mph - N/A   Overcast
3:55 AM 8.6 °F -2.6 °F 5.0 °F 85% 30.24 in 10.0 mi WSW 6.9 mph - N/A   Overcast
4:15 AM 8.6 °F -3.7 °F 5.0 °F 85% 30.24 in 10.0 mi West 8.1 mph - N/A   Overcast
4:35 AM 10.4 °F 0.8 °F 5.0 °F 79% 30.22 in 10.0 mi WSW 5.8 mph - N/A   Overcast
4:55 AM 10.4 °F 0.8 °F 5.0 °F 79% 30.21 in 10.0 mi WSW 5.8 mph - N/A   Overcast
5:15 AM 10.4 °F 4.0 °F 5.0 °F 79% 30.20 in 10.0 mi SW 3.5 mph - N/A   Overcast
5:35 AM 10.4 °F - 5.0 °F 79% 30.21 in 10.0 mi Calm Calm - N/A   Overcast
5:55 AM 8.6 °F 0.1 °F 5.0 °F 85% 30.20 in 10.0 mi SSW 4.6 mph - N/A   Overcast
6:15 AM 8.6 °F -3.7 °F 5.0 °F 85% 30.19 in 10.0 mi South 8.1 mph - N/A   Mostly Cloudy
6:35 AM 5.0 °F -8.1 °F 1.4 °F 85% 30.18 in 10.0 mi South 8.1 mph - N/A   Partly Cloudy
6:55 AM 5.0 °F -8.1 °F -0.4 °F 78% 30.18 in 10.0 mi South 8.1 mph - N/A   Clear
7:15 AM 5.0 °F -8.1 °F 1.4 °F 85% 30.17 in 10.0 mi South 8.1 mph - N/A   Clear
7:35 AM 5.0 °F -8.1 °F -0.4 °F 78% 30.15 in 10.0 mi South 8.1 mph - N/A   Clear
7:55 AM 6.8 °F -5.9 °F 1.4 °F 79% 30.15 in 10.0 mi South 8.1 mph - N/A   Clear
8:15 AM 6.8 °F -7.8 °F 1.4 °F 79% 30.13 in 10.0 mi SSW 10.4 mph - N/A   Clear
8:35 AM 6.8 °F -6.9 °F 3.2 °F 85% 30.13 in 10.0 mi SSW 9.2 mph - N/A   Clear
8:55 AM 8.6 °F -6.3 °F 5.0 °F 85% 30.11 in 10.0 mi South 11.5 mph - N/A   Clear
9:35 AM 8.6 °F -6.3 °F 5.0 °F 85% 30.09 in 10.0 mi SSW 11.5 mph - N/A   Clear
9:55 AM 8.6 °F -2.6 °F 5.0 °F 85% 30.08 in 10.0 mi SSW 6.9 mph - N/A   Clear
10:15 AM 15.8 °F 6.1 °F 10.4 °F 79% 30.07 in 10.0 mi SSW 6.9 mph - N/A   Clear
10:35 AM 17.6 °F 8.2 °F 10.4 °F 73% 30.06 in 10.0 mi SW 6.9 mph - N/A   Clear
10:55 AM 19.4 °F 11.5 °F 14.0 °F 80% 30.05 in 10.0 mi WSW 5.8 mph - N/A   Clear
11:15 AM 19.4 °F 8.6 °F 14.0 °F 80% 30.05 in 10.0 mi SW 9.2 mph - N/A   Clear
11:35 AM 21.2 °F 7.3 °F 15.8 °F 80% 30.02 in 10.0 mi WSW 16.1 mph 21.9 mph N/A   Clear
11:55 AM 23.0 °F 11.1 °F 15.8 °F 74% 30.01 in 10.0 mi SW 12.7 mph 19.6 mph N/A   Clear
12:15 PM 23.0 °F 11.1 °F 15.8 °F 74% 29.99 in 10.0 mi SW 12.7 mph 18.4 mph N/A   Clear
12:35 PM 23.0 °F 11.7 °F 15.8 °F 74% 29.97 in 10.0 mi SSW 11.5 mph 17.3 mph N/A   Clear
12:55 PM 23.0 °F 11.1 °F 15.8 °F 74% 29.95 in 10.0 mi SSW 12.7 mph - N/A   Clear
1:15 PM 24.8 °F 14.6 °F 15.8 °F 69% 29.95 in 10.0 mi SW 10.4 mph - N/A   Clear
1:35 PM 26.6 °F 15.7 °F 15.8 °F 64% 29.94 in 10.0 mi SW 12.7 mph 23.0 mph N/A   Clear
1:55 PM 26.6 °F 16.2 °F 15.8 °F 64% 29.93 in 10.0 mi SW 11.5 mph 21.9 mph N/A   Clear
2:15 PM 26.6 °F 17.5 °F 15.8 °F 64% 29.92 in 10.0 mi SW 9.2 mph - N/A   Clear
2:35 PM 26.6 °F 14.3 °F 15.8 °F 64% 29.91 in 10.0 mi SW 16.1 mph 20.7 mph N/A   Clear
2:55 PM 28.4 °F 17.0 °F 15.8 °F 59% 29.90 in 10.0 mi WSW 15.0 mph 21.9 mph N/A   Clear
3:15 PM 28.4 °F 15.8 °F 15.8 °F 59% 29.89 in 10.0 mi SW 18.4 mph 23.0 mph N/A   Clear
3:35 PM 28.4 °F 16.6 °F 17.6 °F 64% 29.88 in 10.0 mi SW 16.1 mph 27.6 mph N/A   Clear
3:55 PM 28.4 °F 17.0 °F 17.6 °F 64% 29.87 in 10.0 mi SW 15.0 mph - N/A   Clear
4:15 PM 30.2 °F 19.8 °F 17.6 °F 60% 29.86 in 10.0 mi SW 13.8 mph 21.9 mph N/A   Clear
4:35 PM 30.2 °F 18.9 °F 17.6 °F 60% 29.85 in 10.0 mi SW 16.1 mph 21.9 mph N/A   Clear
4:55 PM 30.2 °F 18.9 °F 17.6 °F 60% 29.84 in 10.0 mi WSW 16.1 mph 20.7 mph N/A   Clear
5:15 PM 30.2 °F 18.1 °F 17.6 °F 60% 29.83 in 10.0 mi WSW 18.4 mph 21.9 mph N/A   Clear
5:35 PM 28.4 °F 19.7 °F 15.8 °F 59% 29.82 in 10.0 mi SW 9.2 mph - N/A   Clear
5:55 PM 30.2 °F 20.8 °F 15.8 °F 55% 29.83 in 10.0 mi WSW 11.5 mph 20.7 mph N/A   Clear
6:15 PM 28.4 °F 19.7 °F 15.8 °F 59% 29.84 in 10.0 mi West 9.2 mph - N/A   Clear
6:35 PM 28.4 °F 18.5 °F 15.8 °F 59% 29.84 in 10.0 mi West 11.5 mph - N/A   Clear
6:55 PM 28.4 °F 17.5 °F 15.8 °F 59% 29.85 in 10.0 mi WNW 13.8 mph 26.5 mph N/A   Clear
7:15 PM 28.4 °F 18.0 °F 15.8 °F 59% 29.84 in 10.0 mi WNW 12.7 mph 26.5 mph N/A   Clear
7:35 PM 26.6 °F 14.7 °F 15.8 °F 64% 29.84 in 10.0 mi West 15.0 mph - N/A   Clear
7:55 PM 26.6 °F 13.8 °F 15.8 °F 64% 29.83 in 10.0 mi WNW 17.3 mph - N/A   Clear
8:15 PM 26.6 °F 13.1 °F 15.8 °F 64% 29.83 in 10.0 mi West 19.6 mph 25.3 mph N/A   Clear
8:35 PM 26.6 °F 13.1 °F 15.8 °F 64% 29.83 in 10.0 mi West 19.6 mph - N/A   Clear
8:55 PM 26.6 °F 15.2 °F 15.8 °F 64% 29.83 in 10.0 mi WNW 13.8 mph - N/A   Clear
9:15 PM 28.4 °F 16.2 °F 15.8 °F 59% 29.82 in 10.0 mi West 17.3 mph - N/A   Clear
9:35 PM 28.4 °F 16.6 °F 17.6 °F 64% 29.83 in 10.0 mi WNW 16.1 mph - N/A   Clear
9:55 PM 28.4 °F 16.6 °F 17.6 °F 64% 29.84 in 10.0 mi WNW 16.1 mph - N/A   Clear
10:15 PM 26.6 °F 15.2 °F 17.6 °F 69% 29.85 in 10.0 mi WNW 13.8 mph - N/A   Clear
10:35 PM 26.6 °F 14.3 °F 17.6 °F 69% 29.85 in 10.0 mi WNW 16.1 mph - N/A   Clear
10:55 PM 26.6 °F 14.3 °F 17.6 °F 69% 29.86 in 10.0 mi WNW 16.1 mph - N/A   Unknown
11:15 PM 26.6 °F 14.3 °F 17.6 °F 69% 29.87 in 10.0 mi WNW 16.1 mph 20.7 mph N/A   Clear
11:35 PM 26.6 °F 13.4 °F 17.6 °F 69% 29.88 in 10.0 mi WNW 18.4 mph 23.0 mph N/A   Clear
11:55 PM 26.6 °F 14.3 °F 17.6 °F 69% 29.88 in 10.0 mi WNW 16.1 mph - N/A   Clear